Location: *
(43.4667°N, 11.6833°E)
Time: 15:54:31
(UTC+00:00)

Cosmos 2297 - Pass Details

Date: 19 July 2019
Orbit: 836 x 858 km, 71.0° (Epoch: 20 August)

Event Time Altitude Azimuth Distance (km) Brightness Sun altitude
Rises 23:01:13 0° 335° (NNW) 3,401 8.0 -25.6°
Reaches altitude 10° 23:03:40 10° 336° (NNW) 2,465 7.0 -25.7°
Maximum altitude 23:09:20 86° 66° (ENE) 852 3.6 -25.7°
Enters shadow 23:10:01 70° 144° (SE) 897 3.6 -25.7°
